EA4TN Weather Reports


time (UTC)temp
F
wind
direction
speed
knots
gust
knots
rain 1hr
in
rain 24hr
in
rain mn
in
humidity
%
barometer
mb
20260902194516 84 0.0 0.0 0.00 0.00 0.00 32 1020.3
20260902193516 85 0.0 0.0 0.00 0.00 0.00 31 1020.3
20260902192516 86 0.0 0.0 0.00 0.00 0.00 30 1020.2
20260902191556 87 0.0 0.0 0.00 0.00 0.00 30 1020.2
20260902190516 88 0.0 0.0 0.00 0.00 0.00 29 1020.1
20260902185516 90 267 0.0 0.9 0.00 0.00 0.00 27 1020.2
20260902184516 91 267 0.0 1.7 0.00 0.00 0.00 25 1020.1
20260902183516 93 267 0.0 1.7 0.00 0.00 0.00 24 1020.1
20260902182516 94 267 1.7 4.3 0.00 0.00 0.00 23 1020.2
20260902181516 94 268 1.7 3.5 0.00 0.00 0.00 22 1020.2
20260902180516 95 259 1.7 3.5 0.00 0.00 0.00 21 1020.2
20260902175556 95 279 1.7 4.3 0.00 0.00 0.00 22 1020.2
20260902174516 96 264 1.7 4.3 0.00 0.00 0.00 22 1020.3
20260902173516 97 267 0.9 2.6 0.00 0.00 0.00 21 1020.4
20260902172516 96 0.0 1.7 0.00 0.00 0.00 22 1020.2
20260902171516 96 287 1.7 4.3 0.00 0.00 0.00 22 1020.1
20260902170557 96 287 1.7 6.1 0.00 0.00 0.00 22 1020.2
20260902165517 96 285 2.6 5.2 0.00 0.00 0.00 22 1020.2
20260902164516 96 275 0.9 5.2 0.00 0.00 0.00 22 1020.4
20260902163516 97 264 1.7 5.2 0.00 0.00 0.00 22 1020.4
20260902162556 96 191 2.6 5.2 0.00 0.00 0.00 22 1020.5
20260902161556 96 278 2.6 7.0 0.00 0.00 0.00 22 1020.6
20260902160516 96 268 3.5 8.7 0.00 0.00 0.00 22 1020.6
20260902155516 96 244 3.5 7.8 0.00 0.00 0.00 22 1020.7
20260902154516 95 274 2.6 5.2 0.00 0.00 0.00 22 1020.7
20260902153516 95 348 2.6 7.0 0.00 0.00 0.00 23 1020.8
20260902152516 95 273 2.6 7.0 0.00 0.00 0.00 23 1020.8
20260902151517 95 316 1.7 6.1 0.00 0.00 0.00 23 1020.9
20260902150517 95 261 3.5 6.1 0.00 0.00 0.00 23 1021.0
20260902145516 94 267 3.5 7.0 0.00 0.00 0.00 23 1021.0
20260902144517 94 278 2.6 5.2 0.00 0.00 0.00 24 1021.1
20260902143516 95 276 3.5 7.0 0.00 0.00 0.00 24 1021.2
20260902142557 95 129 3.5 7.8 0.00 0.00 0.00 23 1021.2
20260902141516 94 266 1.7 6.1 0.00 0.00 0.00 24 1021.3
20260902140517 94 241 1.7 7.0 0.00 0.00 0.00 25 1021.5
20260902135517 94 278 2.6 5.2 0.00 0.00 0.00 25 1021.5
20260902134517 93 311 0.9 5.2 0.00 0.00 0.00 25 1021.5
20260902133516 94 308 3.5 5.2 0.00 0.00 0.00 24 1021.6
20260902132557 94 316 0.9 5.2 0.00 0.00 0.00 24 1021.7
20260902131517 93 264 2.6 6.1 0.00 0.00 0.00 25 1021.7
20260902130517 94 262 1.7 5.2 0.00 0.00 0.00 25 1021.9
20260902125557 93 218 0.9 4.3 0.00 0.00 0.00 25 1021.9
20260902124516 92 192 1.7 3.5 0.00 0.00 0.00 27 1022.2
20260902123516 93 264 1.7 3.5 0.00 0.00 0.00 28 1022.3
20260902122556 91 121 1.7 3.5 0.00 0.00 0.00 28 1022.2
20260902121517 90 112 3.5 6.1 0.00 0.00 0.00 29 1022.2
20260902120557 90 208 2.6 6.1 0.00 0.00 0.00 30 1022.3
20260902115516 89 266 0.9 4.3 0.00 0.00 0.00 26 1022.4
20260902114516 88 295 1.7 4.3 0.00 0.00 0.00 31 1022.6
20260902113516 88 294 1.7 5.2 0.00 0.00 0.00 32 1022.7
20260902112517 88 300 1.7 4.3 0.00 0.00 0.00 36 1022.8
20260902111516 88 245 0.9 2.6 0.00 0.00 0.00 39 1023.0
20260902110517 86 102 1.7 3.5 0.00 0.00 0.00 41 1023.0
20260902105557 85 277 0.9 4.3 0.00 0.00 0.00 43 1022.9
20260902104517 85 256 1.7 4.3 0.00 0.00 0.00 45 1023.1
20260902103517 84 282 1.7 3.5 0.00 0.00 0.00 47 1023.2
20260902102517 84 204 2.6 5.2 0.00 0.00 0.00 48 1023.2
20260902101517 83 261 0.9 3.5 0.00 0.00 0.00 51 1023.2
20260902100517 82 280 0.9 4.3 0.00 0.00 0.00 53 1023.1
20260902095557 81 254 0.9 4.3 0.00 0.00 0.00 55 1023.1
20260902094517 81 43 0.9 2.6 0.00 0.00 0.00 54 1023.3
20260902093517 81 211 1.7 3.5 0.00 0.00 0.00 54 1023.3
20260902092517 81 99 0.9 2.6 0.00 0.00 0.00 53 1023.2
20260902091516 79 123 0.9 2.6 0.00 0.00 0.00 55 1023.2
20260902090517 79 125 0.0 2.6 0.00 0.00 0.00 55 1023.1
20260902085517 77 69 0.9 2.6 0.00 0.00 0.00 57 1023.0
20260902084516 77 32 0.9 3.5 0.00 0.00 0.00 55 1023.1
20260902083517 76 61 0.9 2.6 0.00 0.00 0.00 57 1023.0
20260902082517 75 25 0.0 2.6 0.00 0.00 0.00 56 1022.9
20260902081517 75 70 0.9 2.6 0.00 0.00 0.00 55 1022.9
20260902080517 73 68 0.0 1.7 0.00 0.00 0.00 56 1022.8
20260902075516 72 0.0 2.6 0.00 0.00 0.00 56 1022.6
20260902074557 71 62 1.7 4.3 0.00 0.00 0.00 56 1022.3
20260902073517 70 70 2.6 4.3 0.00 0.00 0.00 58 1022.2
20260902072517 70 45 1.7 5.2 0.00 0.00 0.00 57 1022.2
20260902071517 69 45 2.6 4.3 0.00 0.00 0.00 54 1022.1
20260902070517 68 47 2.6 4.3 0.00 0.00 0.00 51 1022.2
20260902065517 67 44 3.5 6.1 0.00 0.00 0.00 51 1022.0
20260902064517 67 43 4.3 7.0 0.00 0.00 0.00 50 1022.1
20260902063517 67 50 2.6 5.2 0.00 0.00 0.00 49 1021.9
20260902062517 66 47 3.5 7.8 0.00 0.00 0.00 49 1021.7
20260902061517 66 46 4.3 7.0 0.00 0.00 0.00 47 1021.6
20260902060517 66 47 4.3 6.1 0.00 0.00 0.00 46 1021.6
20260902055517 66 46 2.6 5.2 0.00 0.00 0.00 44 1021.6
20260902054557 66 50 1.7 5.2 0.00 0.00 0.00 44 1021.4
20260902053517 66 43 3.5 5.2 0.00 0.00 0.00 43 1021.3
20260902052517 67 52 2.6 4.3 0.00 0.00 0.00 43 1021.1
20260902051517 67 62 2.6 6.1 0.00 0.00 0.00 43 1021.2
20260902050517 67 55 2.6 5.2 0.00 0.00 0.00 43 1021.2
20260902045657 67 41 2.6 4.3 0.00 0.00 0.00 42 1021.0
20260902044517 67 59 1.7 4.3 0.00 0.00 0.00 42 1020.9
20260902043517 68 67 1.7 4.3 0.00 0.00 0.00 41 1020.8
20260902042517 68 46 2.6 5.2 0.00 0.00 0.00 40 1020.9
20260902041517 68 42 1.7 3.5 0.00 0.00 0.00 39 1020.9
20260902040517 69 59 1.7 4.3 0.00 0.00 0.00 38 1020.9
20260902035517 69 63 1.7 4.3 0.00 0.00 0.00 39 1021.0
20260902034517 69 76 1.7 3.5 0.00 0.00 0.00 39 1021.0
20260902033517 69 42 1.7 4.3 0.00 0.00 0.00 39 1021.0
20260902032517 69 82 1.7 3.5 0.00 0.00 0.00 39 1021.1
20260902031517 69 82 1.7 2.6 0.00 0.00 0.00 38 1021.0
20260902030517 70 81 1.7 4.3 0.00 0.00 0.00 38 1020.9
20260902025557 70 46 1.7 3.5 0.00 0.00 0.00 37 1020.9
20260902024517 70 56 0.9 2.6 0.00 0.00 0.00 37 1020.8
20260902023517 71 56 1.7 2.6 0.00 0.00 0.00 36 1020.8
20260902022517 71 56 0.9 3.5 0.00 0.00 0.00 36 1020.6
20260902021517 70 47 0.9 2.6 0.00 0.00 0.00 38 1020.5
20260902020517 71 47 0.9 4.3 0.00 0.00 0.00 38 1020.5
20260902015517 71 66 1.7 4.3 0.00 0.00 0.00 37 1020.4
20260902014517 71 13 0.9 1.7 0.00 0.00 0.00 39 1020.4
20260902013515 71 0.0 0.0 0.00 0.00 0.00 38 1020.3
20260902012517 71 0.0 0.0 0.00 0.00 0.00 38 1020.3
20260902011515 71 0.0 0.0 0.00 0.00 0.00 38 1020.2
20260902010517 72 0.0 0.0 0.00 0.00 0.00 37 1020.3
20260902005517 72 0.0 0.0 0.00 0.00 0.00 37 1020.3
20260902004517 72 0.0 0.0 0.00 0.00 0.00 36 1020.2
20260902003517 73 0.0 0.0 0.00 0.00 0.00 35 1020.2
20260902002517 73 0.0 0.0 0.00 0.00 0.00 34 1020.3
20260902001637 74 0.0 0.0 0.00 0.00 0.00 34 1020.3
20260902000517 73 0.0 0.0 0.00 0.00 0.00 35 1020.1
20260901235516 73 0.0 0.0 0.00 0.00 0.00 37 1020.1
20260901234557 73 0.0 0.0 0.00 0.00 0.00 37 1020.2
20260901233557 73 0.0 0.0 0.00 0.00 0.00 37 1020.1
20260901232557 73 0.0 0.0 0.00 0.00 0.00 37 1020.1
20260901231517 74 0.0 0.0 0.00 0.00 0.00 36 1020.0
20260901230557 74 0.0 0.0 0.00 0.00 0.00 36 1019.9
20260901225517 74 0.0 0.0 0.00 0.00 0.00 35 1019.8
20260901224517 74 0.0 0.0 0.00 0.00 0.00 37 1019.6
20260901223516 75 0.0 0.0 0.00 0.00 0.00 37 1019.4
20260901222517 75 0.0 0.0 0.00 0.00 0.00 35 1019.3
20260901221516 76 0.0 0.0 0.00 0.00 0.00 36 1019.3
20260901220516 76 0.0 0.0 0.00 0.00 0.00 36 1019.2
20260901215556 76 0.0 0.0 0.00 0.00 0.00 34 1019.2
20260901214517 77 0.0 0.0 0.00 0.00 0.00 33 1019.1
20260901213516 78 0.0 0.0 0.00 0.00 0.00 32 1019.1
20260901212516 78 0.0 0.0 0.00 0.00 0.00 33 1019.1
20260901211556 79 0.0 0.0 0.00 0.00 0.00 31 1019.0
20260901210517 79 0.0 0.0 0.00 0.00 0.00 30 1018.9
20260901205557 80 0.0 0.0 0.00 0.00 0.00 29 1018.8
20260901204517 81 0.0 0.0 0.00 0.00 0.00 29 1018.7
20260901203517 83 0.0 0.0 0.00 0.00 0.00 25 1018.5
20260901202517 84 317 0.0 0.9 0.00 0.00 0.00 25 1018.5
20260901201517 84 317 0.0 1.7 0.00 0.00 0.00 24 1018.4
20260901200517 85 316 0.9 1.7 0.00 0.00 0.00 23 1018.2
20260901195517 85 317 0.0 1.7 0.00 0.00 0.00 23 1017.9